CW5841 Weather Reports


Display with metric or nautical units.
time (UTC)temp
F
wind
direction
speed
MPH
gust
MPH
rain 1hr
in
rain 24hr
in
rain mn
in
humidity
%
barometer
mb
20260507143603 60 25 3.0 7.0 0.00 0.00 0.00 50 1014.4
20260507140104 60 121 3.0 9.0 0.00 0.00 0.00 52 1014.8
20260507133103 59 23 1.0 8.0 0.00 0.00 0.00 53 1014.8
20260507130603 59 122 2.0 10.0 0.00 0.00 0.00 57 1014.8
20260507120104 58 185 3.0 12.0 0.00 0.00 0.00 61 1015.3
20260507113605 56 146 3.0 9.0 0.00 0.00 0.00 69 1015.3
20260507110603 54 123 4.0 9.0 0.00 0.00 0.00 69 1015.5
20260507103104 53 176 3.0 8.0 0.00 0.00 0.00 76 1015.7
20260507093104 51 178 2.0 8.0 0.00 0.00 0.00 82 1015.7
20260507090106 50 147 1.0 6.0 0.00 0.00 0.00 83 1015.7
20260507083603 49 299 1.0 6.0 0.00 0.00 0.00 87 1015.7
20260507083103 49 137 2.0 6.0 0.00 0.00 0.00 86 1015.7
20260507080604 47 137 3.0 7.0 0.00 0.00 0.00 89 1015.7
20260507080103 47 130 2.0 7.0 0.00 0.00 0.00 89 1015.7
20260507073604 46 114 3.0 6.0 0.00 0.00 0.00 91 1015.7
20260507063103 44 144 1.0 6.0 0.00 0.00 0.00 98 1015.5
20260507053604 41 152 2.0 5.0 0.00 0.00 0.00 100 1015.3
20260507053104 41 152 3.0 6.0 0.00 0.00 0.00 100 1015.3
20260507050603 38 157 0.0 2.0 0.00 0.00 0.00 100 1015.3
20260507050104 38 145 0.0 3.0 0.00 0.00 0.00 100 1015.3
20260507040104 37 176 0.0 0.0 0.00 0.00 0.00 100 1015.3
20260507033603 39 165 0.0 0.0 0.00 0.00 0.00 100 1015.2
20260507023603 39 162 2.0 3.0 0.00 0.00 0.00 100 1015.3
20260507020103 41 172 1.0 3.0 0.00 0.00 0.00 100 1015.3
20260507013603 41 128 1.0 2.0 0.00 0.00 0.00 100 1015.5
20260507003104 39 151 0.0 3.0 0.00 0.00 0.00 100 1015.7
20260507000604 40 168 2.0 3.0 0.00 0.00 0.00 99 1015.7
20260507000104 40 151 1.0 5.0 0.00 0.00 0.00 99 1015.7
20260506233103 41 168 1.0 7.0 0.00 0.00 0.00 99 1015.7
20260506230104 41 166 2.0 5.0 0.00 0.00 0.00 99 1015.7
20260506223104 41 179 0.0 6.0 0.00 0.00 0.00 100 1015.7
20260506220603 40 152 0.0 2.0 0.00 0.00 0.00 100 1015.7
20260506220103 39 144 0.0 5.0 0.00 0.00 0.00 100 1015.6
20260506213603 39 173 1.0 3.0 0.00 0.00 0.00 99 1015.5
20260506210604 39 67 0.0 0.0 0.00 0.00 0.00 98 1015.3
20260506200605 42 147 1.0 3.0 0.00 0.00 0.00 94 1014.8
20260506200104 42 173 2.0 6.0 0.00 0.00 0.00 93 1014.7
20260506193604 44 155 3.0 6.0 0.00 0.00 0.00 90 1014.5
20260506193103 44 152 2.0 3.0 0.00 0.00 0.00 90 1014.4
20260506190603 45 313 1.0 3.0 0.00 0.00 0.00 89 1014.4
20260506183604 47 229 2.0 5.0 0.00 0.00 0.00 80 1014.4
20260506180603 49 16 0.0 6.0 0.00 0.00 0.00 73 1014.4
20260506173103 51 28 2.0 8.0 0.00 0.00 0.00 65 1014.1
20260506170105 53 43 3.0 9.0 0.00 0.00 0.00 66 1014.2